Home > Weather > Amarillo > Past weeks

Flag for USA Past Weather in Amarillo, Texas, USA — Yesterday and Last 2 Weeks

Now
81 °F

Sunny.


Feels Like: 81 °F
Forecast: 71 / 99 °F
Wind: 21 mph from Southwest

Location: Amarillo International Airport

Current Time: Jul 23, 2016 at 10:15:26 AM

Latest Report: Jul 23, 2016 at 8:53 AM


Visibility: 10 mi

Pressure: 29.88 "Hg (26.32 "Hg at 1117m altitude)

Humidity: 42%

Dew Point: 56 °F

Location of AmarilloLocation

Past Weather in Amarillo — Graph

°F

Amarillo Temperature Yesterday

Maximum temperature yesterday: 99 °F (at 3:53 PM)
Minimum temperature yesterday: 70 °F (at 6:53 AM)
Average temperature yesterday: 86 °F

High & Low Weather Summary for the Past Weeks

 TemperatureHumidityPressure
High107 °F (Jul 11, 2:53 PM)93% (Jul 15, 2:53 AM)30.12 "Hg (Jul 15, 2:53 AM)
Low64 °F (Jul 16, 6:53 AM)7% (Jul 11, 6:53 PM)29.52 "Hg (Jul 11, 6:53 PM)
Average84 °F45%29.87 "Hg
* Reported Jul 8 8:53 AM — Jul 23 8:53 AM, Amarillo, Weather by CustomWeather, © 2016

Note: Actual official high and low records may vary slightly from our data, if they occured in-between our weather recording intervals... More about our weather records

Advertising

Amarillo Weather History for the Previous 24 Hours

Scroll right to see more
 ConditionsComfort  
Time TempWeatherWind HumidityBarometerVisibility
8:53 AM
Sat, Jul 23
81 °FSunny.21 mph42%29.88 "Hg10 mi
7:53 AM72 °FSunny.12 mph55%29.89 "Hg10 mi
6:53 AM68 °FClear.10 mph61%29.89 "Hg10 mi
5:53 AM70 °FClear.9 mph57%29.88 "Hg10 mi
4:53 AM71 °FClear.12 mph55%29.88 "Hg10 mi
3:53 AM72 °FClear.13 mph52%29.88 "Hg10 mi
2:53 AM71 °FClear.10 mph53%29.88 "Hg10 mi
1:53 AM74 °FClear.10 mph46%29.88 "Hg10 mi
12:53 AM79 °FClear.12 mph39%29.88 "Hg10 mi
11:53 PM
Fri, Jul 22
80 °FClear.13 mph38%29.88 "Hg10 mi
10:53 PM84 °FClear.15 mph33%29.89 "Hg10 mi
9:53 PM85 °FSunny.14 mph34%29.88 "Hg10 mi
8:53 PM90 °FSunny.15 mph26%29.87 "Hg10 mi
7:53 PM94 °FSunny.20 mph23%29.88 "Hg10 mi
6:53 PM96 °FSunny.20 mph23%29.88 "Hg10 mi
5:53 PM98 °FSunny.18 mph21%29.88 "Hg10 mi
4:53 PM98 °FSunny.10 mph22%29.90 "Hg10 mi
3:53 PM99 °FSunny.18 mph22%29.91 "Hg10 mi
2:53 PM98 °FSunny.15 mph24%29.93 "Hg10 mi
1:53 PM96 °FSunny.13 mph26%29.95 "Hg10 mi
12:53 PM95 °FSunny.17 mph27%29.97 "Hg10 mi
11:53 AM94 °FSunny.16 mph28%29.98 "Hg10 mi
10:53 AM90 °FSunny.15 mph31%29.98 "Hg10 mi
Weather by CustomWeather, © 2016

See weather overviewHow to use our weather pages